Regional Weather Roundup
Issued by NWS

Home | Current Version | Previous Version | Text Only | Print | Product List | Glossary Off
Versions: 1 2 3 4 5 6 7 8 9 10 11 12 13 14 15 16 17 18 19 20 21 22 23 24 25 26 27

000
ASUS45 KBOU 310107
RWRCO

WEATHER ROUNDUP FOR COLORADO
NATIONAL WEATHER SERVICE DENVER/BOULDER CO
700 PM MDT TUE AUG 30 2016

NOTE: "FAIR" INDICATES FEW OR NO CLOUDS BELOW 12000 FEET WITH NO
SIGNIFICANT WEATHER AND/OR OBSTRUCTIONS TO VISIBILITY.

COZ001>005-013-030-031-310200-
...NORTHWEST COLORADO...

CITY           SKY/WX    TMP DP  RH WIND       PRES   REMARKS
CRAIG          FAIR      83  34  17 E9        30.20S
HAYDEN         FAIR      73  37  27 SE16G23   30.25R
MEEKER         FAIR      79  37  22 W5        30.21S
MOUNT WERNER   NOT AVBL
STEAMBOAT SPGS FAIR      74  40  29 E9        30.28S
WALDEN         FAIR      68  37  32 E8        30.41S
$$

COZ006>008-011-310200-
...WEST CENTRAL VALLEYS...

CITY           SKY/WX    TMP DP  RH WIND       PRES   REMARKS
GRAND JUNCTION FAIR      85  34  16 S5        30.10F
MONTROSE       FAIR      81  34  18 N3        30.20S
EAGLE          PTCLDY    75  41  29 E10       30.28R
RIFLE          FAIR      78  42  27 CALM      30.16S
DELTA          FAIR      85  33  15 SE6       30.15S
NUCLA          FAIR     N/A N/A N/A CALM      30.23S
$$

COZ017>023-064>068-310200-
...SOUTHWEST COLORADO...

CITY           SKY/WX    TMP DP  RH WIND       PRES   REMARKS
DURANGO        CLOUDY    72  43  35 NE13      30.28S
CORTEZ         FAIR      78  45  30 NE5       30.21F
PAGOSA SPRINGS FAIR      65  41  42 NW12G17   30.37F THUNDER
TELLURIDE      CLOUDY    67  40  36 S6        30.46S THUNDER
WOLF CREEK PAS MOCLDY    46  39  76 CALM      30.69S THUNDER
$$

COZ009-010-012-014-032>034-037-058>063-310200-
...CENTRAL COLORADO...

CITY           SKY/WX    TMP DP  RH WIND       PRES   REMARKS
ASPEN          FAIR      62  43  49 SE15G25   30.39S
BUENA VISTA    LGT RAIN  56  49  77 NW12      30.45S
COPPER MTN     MOCLDY    52  39  62 S8        30.69S
BERTHOUD PASS  CLOUDY    37  27  65 E22G28    30.72S
COTTONWOOD PAS CLOUDY    55  45  67 CALM      30.57R
GUNNISON       FAIR      66  39  37 E9        30.38S
KREMMLING      FAIR      66  37  34 CALM      30.37S
LEADVILLE      CLOUDY    49  42  77 SE8       30.56R
MONARCH PASS   FAIR      43  37  81 NE17      30.77S
SALIDA         FAIR      68  45  43 E7        30.47R
SUNLIGHT       CLOUDY    59  41  51 CALM      30.61S
WILKERSON PASS FAIR      45  36  70 NE7       30.68F
$$

COZ069>075-310200-
...SAN LUIS VALLEY/SANGRE DE CRISTO MOUNTAINS...

CITY           SKY/WX    TMP DP  RH WIND       PRES   REMARKS
ALAMOSA        FAIR      67  45  45 NE6       30.34F
LA VETA PASS   NOT AVBL
SAGUACHE       FAIR      64  43  45 E5        30.39S
$$

COZ035-036-038>040-310200-
...NORTHERN COLORADO FRONT RANGE...

CITY           SKY/WX    TMP DP  RH WIND       PRES   REMARKS
DENVER INTL AP MOCLDY    71  54  54 E22G28    30.27R THUNDER
DMNS CITY PARK   N/A     68  56  64 NE10G20   30.27R
AURORA         TSTM      68  56  65 E17G24    30.29R
FRONT RANGE AP MOCLDY    72  55  56 E17G29    30.29R
ERIE MUNI ARPT FAIR      75  49  39 NE9       30.25S
BOULDER MUN AP FAIR      73  46  38 N5        30.26S
CENTENNIAL     MOCLDY    71  53  52 SE10G21   30.30R
BROOMFIELD     MOCLDY    75  46  35 N9        30.28S
FORT COLLINS   FAIR      75  50  41 E12       30.24R
LONGMONT       FAIR      76  50  40 NE9       30.27R HAZE
$$

COZ041-046-047-076>085-087-088-310200-
...PIKES PEAK/PALMER DIVIDE AND SOUTHERN FOOTHILLS...

CITY           SKY/WX    TMP DP  RH WIND       PRES   REMARKS
COLO. SPRINGS  FAIR      69  50  50 S5        30.33S
A. F. ACADEMY  FAIR      68  52  56 SW5       30.33S
SCHRIEVER AFB  NOT AVBL
ELLICOTT       NOT AVBL
FALCON         FAIR      63  51  65 CALM      30.38S
FORT CARSON    FAIR      69  52  55 SE8       30.30S
LIMON          FAIR      66  56  70 E9        30.30R
MONUMENT HILL  FAIR      66  45  45 MISG      30.38S
TRINIDAD       FAIR      69  51  52 W12       30.28F
$$

COZ042>045-048>051-090-091-310200-
...NORTHEAST COLORADO...

CITY           SKY/WX    TMP DP  RH WIND       PRES   REMARKS
GREELEY ARPT   FAIR      73  54  49 E10       30.25S
AKRON          MOCLDY    67  60  78 SE13      30.27S
BURLINGTON     CLOUDY    68  55  63 NE16G22   30.24R
WRAY           NOT AVBL
STERLING       FAIR      73  59  60 SE8       30.23S
HOLYOKE        FAIR      73  64  73 E6        30.24S
FORT MORGAN    FAIR      70  56  60 E12G17    30.26S
$$

COZ086-089-092>099-310200-
...SOUTHEAST COLORADO...

CITY           SKY/WX    TMP DP  RH WIND       PRES   REMARKS
PUEBLO         MOCLDY    76  53  44 SE10      30.24R
LA JUNTA       FAIR      77  53  43 E12       30.21S
LAMAR          MOCLDY    78  57  48 SE12      30.18S
SPRINGFIELD      N/A     69  59  70 S6        30.24S
$$




USA.gov is the U.S. government's official web portal to all federal, state and local government web resources and services.